Epoch 2010 June 13.0 TT = JDT 2455360.5 T 2010 June 18.89948 TT MPC q 2.7455428 (2000.0) P Q z +0.0001362 Peri. 233.82008 -0.71773079 +0.68407490 +/-0.0000068 Node 347.38398 -0.27127560 -0.44666466 e 0.9996260 Incl. 36.53154 -0.64130496 -0.57665607 From 40 observations 2010 Feb. 19-July 2, mean residual 0".6.
m1 = 12.5 + 5 logΔ + 10.0 log r